Torna al catalogo

DELTA 1 DEB

AttivoUNKNOWN
NORAD 42578·DEBRIS·🇺🇸 United States

Lanciato Nov 6, 1973 da Vandenberg Space Force Base

Loading…

Prossimi Passaggi (prossime 24 ore)

TLE

In scadenzaSource: Space-Track

Epoca: Aug 24, 2026, 13:45 UTC

1 42578U 73086HS  26236.57332969  .00001547  00000-0  18255-1 0  9992
2 42578 100.6626 102.9619 0830260 307.5351  45.2970 11.39243954 89050

Traccia DELTA 1 DEB in tempo reale con AllMySat

Download on the App Store